Temp
77 86 87 80 64 61 58 66 78 76 81 89 89 86 80 83 79 67 84 85 82 78 78 81 80 80 80 79 79 79 79 79 79 79 79 79 79 79 79 79 79 80 81 81 81 81 80 80 80
78 85 81 73 58 51 59 72 68 77 83 90 90 89 85 80 90 85 82 85 83 79 77 79 80 80 80 79 79 79 79 79 79 78 79 79 79 79 79 79 79 80 81 81 81 81 80 80 80
81 85 68 63 58 56 60 74 77 85 90 88 85 91 88 83 91 88 89 86 83 79 78 79 80 80 80 80 79 79 79 79 79 79 79 79 78 78 78 79 79 80 81 81 81 80 80 80 79
81 76 71 58 57 67 73 81 82 85 90 91 89 83 89 93 92 91 90 89 84 81 79 79 79 79 80 80 79 79 79 79 79 79 79 78 78 78 78 78 79 80 81 81 80 79 79 79 79
76 69 57 54 61 74 82 86 84 83 86 88 89 83 82 91 96 93 90 90 85 82 77 78 79 79 79 80 79 79 79 78 79 79 79 79 78 78 78 78 79 79 80 80 80 79 79 78 78
66 67 52 51 61 76 79 82 83 80 85 88 84 83 81 92 93 92 93 90 89 80 78 78 79 78 79 79 79 78 78 78 78 78 78 78 78 78 78 78 79 79 79 79 79 78 78 77 77
66 60 54 58 63 70 77 83 78 77 83 84 87 79 80 88 91 93 93 91 85 83 79 77 77 78 79 78 78 78 78 78 78 78 77 78 78 77 78 78 78 78 78 78 78 77 77 77 77
70 63 57 64 65 66 81 83 79 81 83 91 91 77 71 82 93 92 93 86 84 82 80 76 75 76 76 76 78 78 77 78 77 77 77 77 77 77 77 77 77 78 78 78 77 77 77 77 76
77 54 52 59 65 72 80 78 86 88 86 88 85 86 88 91 90 87 85 87 84 82 79 78 76 74 75 75 78 77 78 78 78 78 77 76 74 75 76 76 77 78 78 77 77 77 76 76 76
65 57 61 72 75 72 77 75 79 80 79 80 83 90 92 91 87 85 84 84 85 80 80 80 79 77 77 83 76 75 77 76 76 76 76 75 73 73 77 76 77 77 77 77 77 77 76 77 71
68 61 70 76 79 79 73 74 78 77 70 78 77 81 86 84 83 85 86 86 89 85 84 82 81 80 80 81 75 75 74 74 75 75 74 73 76 75 76 72 76 72 76 73 74 73 72 72 72
61 72 74 77 80 73 74 80 76 72 74 83 84 85 81 81 81 79 82 82 82 76 86 80 83 81 79 81 77 77 77 76 75 76 75 75 73 72 75 73 72 72 73 70 71 71 72 72 75
65 70 77 79 78 74 78 74 76 74 82 84 84 85 80 78 79 81 79 81 80 76 76 76 79 79 81 82 81 80 80 78 77 76 76 76 75 73 73 73 74 73 73 72 72 72 75 75 76
71 73 73 75 76 73 72 73 73 76 82 83 83 81 80 81 81 80 79 79 81 76 75 75 76 76 79 81 81 81 81 79 78 78 78 76 76 74 76 76 76 76 76 76 76 76 76 76 78
72 65 70 72 71 71 75 69 71 78 81 78 80 79 80 79 83 81 82 81 80 78 77 75 73 70 71 78 79 80 80 76 81 80 79 79 75 76 74 74 75 75 78 77 78 77 76 74 76
64 61 52 66 73 74 70 59 72 78 78 76 78 80 81 78 80 79 80 78 79 74 75 75 79 74 72 75 76 77 78 76 77 78 79 79 79 77 77 75 76 75 73 75 76 77 75 76 76
56 49 55 62 74 73 71 63 73 79 76 75 78 77 79 78 78 78 82 80 80 74 72 72 75 77 71 75 80 77 77 77 78 78 78 79 79 78 79 77 77 74 76 72 71 70 70 68 68
51 52 58 60 70 70 68 67 70 76 74 72 73 75 75 76 77 80 81 81 77 74 74 75 74 72 75 74 75 75 74 76 77 77 78 79 79 79 77 78 76 74 77 77 72 70 69 70 69
63 60 59 64 70 64 62 64 68 72 69 69 70 71 72 74 78 78 79 80 76 72 73 74 74 73 69 68 72 72 73 73 78 80 80 79 78 80 79 80 76 78 73 77 77 73 70 70 70
64 59 58 63 69 65 61 61 67 70 69 69 69 70 70 71 73 78 77 76 73 72 72 71 72 72 72 68 67 71 72 72 74 75 82 81 74 79 79 79 76 76 77 76 71 73 69 71 69
61 57 58 57 65 65 61 57 61 68 69 72 73 72 71 71 71 73 75 72 70 69 69 71 71 71 70 71 69 67 68 71 71 72 75 75 75 73 73 75 79 76 78 77 75 73 70 70 68
55 66 66 63 56 48 59 46 55 62 65 71 73 73 71 72 74 73 69 68 69 69 71 69 69 69 72 70 68 67 64 65 73 74 72 73 72 68 69 67 74 71 71 71 78 75 71 66 68
59 68 63 62 54 46 52 44 50 62 62 66 67 75 74 72 70 70 69 70 71 71 68 68 68 68 69 70 68 66 65 64 67 72 71 73 71 68 70 72 73 66 69 75 73 73 72 68 68
70 62 58 54 48 42 49 48 50 57 63 65 71 72 76 73 70 69 70 71 69 69 68 67 67 66 68 68 68 67 65 65 65 68 69 72 75 72 72 77 68 66 70 74 70 66 67 70 70
62 50 38 35 36 38 54 51 52 61 67 70 67 67 68 68 66 66 67 66 68 68 67 68 66 65 66 66 66 66 66 66 65 65 68 68 71 73 71 70 70 71 67 64 62 60 63 65 65
55 50 41 31 32 38 51 41 50 64 68 68 70 67 69 68 67 66 67 68 68 68 67 67 66 65 65 65 64 64 64 64 65 64 65 67 65 70 69 70 68 69 67 66 66 61 63 65 64
54 47 53 41 41 36 42 51 60 62 63 66 69 69 66 65 64 66 68 66 67 66 66 66 66 66 65 65 63 63 62 62 62 64 66 67 67 71 72 68 66 66 66 65 66 67 66 65 61
57 60 41 39 31 28 40 45 46 53 57 61 62 64 65 64 65 64 64 66 66 64 65 65 65 64 65 65 64 64 63 63 62 62 62 65 66 66 67 68 67 65 63 64 63 63 62 61 59
49 46 48 46 39 32 28 37 55 53 57 57 60 62 64 63 65 66 66 65 64 64 65 64 63 64 63 63 63 62 63 63 62 60 61 62 63 65 67 68 68 67 62 60 58 58 61 60 59
55 49 47 35 36 38 37 38 60 56 56 57 60 62 64 64 63 65 66 66 65 63 64 65 64 64 65 64 63 61 63 62 60 60 60 61 61 62 62 61 63 64 64 63 61 60 63 62 59
MSLP
1009.58 1009.05 1008.71 1008.48 1009.10 1008.35 1007.41 1005.86 1004.12 1003.00 1001.16 1000.49 1000.03 1000.29 1001.29 1001.33 1002.30 1004.46 1005.08 1005.37 1006.46 1007.92 1008.43 1008.43 1008.45 1008.91 1009.47 1009.95 1010.49 1010.97 1011.42 1011.79 1012.18 1012.55 1012.90 1013.18 1013.44 1013.63 1013.86 1014.12 1014.42 1014.74 1014.96 1015.13 1015.31 1015.45 1015.57 1015.61 1015.62
1009.50 1009.31 1008.68 1008.56 1008.67 1008.31 1006.45 1005.13 1004.32 1002.77 1001.43 1000.28 1000.35 1000.33 1001.33 1002.40 1002.33 1004.01 1005.11 1005.89 1006.49 1007.68 1008.54 1008.60 1008.71 1009.02 1009.54 1010.11 1010.64 1011.10 1011.49 1011.90 1012.32 1012.65 1013.03 1013.41 1013.73 1013.99 1014.21 1014.42 1014.61 1014.82 1015.06 1015.25 1015.42 1015.49 1015.58 1015.65 1015.68
1009.50 1009.34 1009.66 1008.76 1008.07 1007.38 1006.17 1004.11 1003.01 1002.42 1001.27 1000.84 1000.88 1000.24 1001.29 1002.73 1003.07 1003.77 1004.83 1005.71 1006.64 1007.92 1008.58 1008.81 1008.92 1009.11 1009.55 1010.19 1010.66 1011.16 1011.59 1012.01 1012.47 1012.86 1013.19 1013.44 1013.75 1014.06 1014.38 1014.61 1014.77 1014.84 1014.96 1015.09 1015.35 1015.56 1015.59 1015.67 1015.74
1009.51 1009.10 1009.30 1008.59 1008.02 1006.31 1005.08 1003.63 1002.71 1002.14 1001.56 1001.16 1000.91 1001.62 1002.15 1002.29 1002.78 1003.63 1005.01 1005.72 1006.73 1007.96 1008.72 1009.14 1009.34 1009.60 1009.83 1010.20 1010.81 1011.18 1011.60 1011.98 1012.40 1012.85 1013.25 1013.57 1013.90 1014.14 1014.47 1014.69 1014.95 1015.09 1015.17 1015.21 1015.25 1015.27 1015.33 1015.47 1015.61
1009.44 1009.71 1009.65 1008.75 1007.54 1005.72 1004.34 1003.27 1001.89 1002.14 1001.71 1001.61 1001.25 1002.25 1002.71 1002.75 1002.88 1003.89 1004.74 1005.64 1006.64 1008.03 1008.83 1009.27 1009.52 1009.75 1010.08 1010.38 1010.82 1011.37 1011.71 1012.07 1012.43 1012.85 1013.24 1013.59 1013.86 1014.18 1014.45 1014.59 1014.77 1014.95 1015.18 1015.36 1015.46 1015.51 1015.45 1015.46 1015.51
1009.88 1009.57 1009.86 1009.05 1007.39 1005.33 1004.19 1003.43 1002.42 1002.09 1002.25 1002.10 1001.87 1002.47 1003.12 1003.24 1003.22 1003.65 1004.37 1005.30 1006.17 1007.40 1008.39 1009.11 1009.51 1009.80 1010.21 1010.53 1010.87 1011.32 1011.76 1012.03 1012.38 1012.81 1013.19 1013.53 1013.83 1014.11 1014.35 1014.52 1014.67 1014.80 1014.89 1015.02 1015.17 1015.30 1015.36 1015.41 1015.49
1009.68 1009.80 1009.47 1008.82 1007.43 1005.50 1003.95 1003.00 1002.78 1002.28 1002.02 1002.46 1002.29 1003.16 1004.05 1003.59 1003.30 1003.47 1003.89 1005.13 1006.27 1007.19 1008.06 1008.81 1009.43 1009.79 1010.16 1010.46 1010.84 1011.17 1011.65 1012.11 1012.43 1012.71 1013.03 1013.43 1013.81 1014.07 1014.26 1014.36 1014.46 1014.57 1014.70 1014.82 1014.81 1014.95 1015.08 1015.14 1015.13
1009.00 1009.65 1009.14 1008.29 1007.23 1005.47 1003.73 1003.12 1002.45 1002.30 1002.19 1002.47 1002.56 1003.50 1004.16 1003.82 1003.48 1003.76 1004.18 1005.42 1006.39 1007.28 1008.07 1008.98 1009.43 1009.73 1010.21 1010.70 1011.06 1011.37 1011.73 1012.16 1012.58 1012.85 1013.13 1013.34 1013.56 1013.79 1014.09 1014.31 1014.44 1014.46 1014.52 1014.60 1014.75 1014.73 1014.79 1014.97 1014.98
1008.57 1009.13 1008.69 1007.74 1006.88 1005.28 1003.88 1003.17 1002.26 1001.64 1001.98 1002.57 1003.11 1003.63 1003.76 1003.64 1003.78 1004.09 1004.53 1005.43 1006.16 1006.98 1007.53 1008.50 1009.38 1009.90 1010.45 1010.92 1011.19 1011.53 1011.70 1011.96 1012.32 1012.67 1012.94 1013.26 1013.45 1013.70 1013.85 1013.95 1014.00 1014.16 1014.31 1014.54 1014.59 1014.55 1014.52 1014.66 1014.76
1008.43 1008.28 1007.77 1006.91 1006.03 1005.09 1004.06 1003.67 1003.06 1002.44 1002.62 1002.90 1003.19 1003.26 1003.76 1004.00 1004.08 1004.38 1004.64 1005.06 1005.64 1006.41 1007.11 1007.45 1008.62 1009.56 1010.07 1010.45 1011.07 1011.50 1011.79 1012.04 1012.29 1012.39 1012.55 1012.86 1013.04 1013.28 1013.50 1013.83 1013.89 1014.07 1014.12 1013.98 1014.19 1014.37 1014.38 1014.33 1014.37
1007.73 1007.63 1006.97 1006.01 1005.30 1004.83 1004.18 1003.67 1003.35 1003.38 1003.34 1003.52 1003.72 1003.71 1003.77 1004.53 1004.69 1004.43 1004.48 1004.77 1004.77 1005.00 1006.01 1006.92 1007.64 1008.94 1009.55 1009.59 1010.62 1011.25 1011.56 1011.82 1012.15 1012.36 1012.72 1012.97 1013.02 1013.17 1013.15 1013.30 1013.42 1013.65 1013.76 1013.91 1013.94 1014.01 1014.17 1014.18 1014.12
1007.44 1006.79 1006.27 1005.44 1004.90 1004.73 1004.22 1003.78 1003.43 1003.60 1003.72 1003.51 1003.90 1003.96 1004.19 1004.52 1005.03 1005.15 1005.26 1005.05 1005.36 1005.88 1006.40 1007.21 1007.17 1007.32 1008.79 1009.18 1009.80 1010.34 1010.89 1011.31 1011.62 1011.99 1011.95 1012.14 1012.38 1012.61 1012.71 1013.02 1013.24 1013.22 1013.35 1013.41 1013.30 1013.54 1013.45 1013.64 1013.87
1006.78 1006.34 1005.62 1004.93 1004.44 1004.33 1004.06 1003.87 1003.86 1003.65 1003.68 1003.54 1003.90 1004.04 1004.19 1004.72 1004.87 1004.72 1004.95 1005.29 1005.65 1006.52 1006.79 1006.56 1007.05 1007.82 1006.93 1007.77 1008.35 1009.12 1009.88 1010.19 1010.58 1011.35 1011.60 1011.61 1011.76 1011.80 1012.01 1012.23 1012.42 1012.61 1012.57 1012.93 1013.01 1012.72 1012.78 1012.81 1012.94
1005.96 1005.57 1005.08 1004.65 1004.11 1004.04 1004.02 1003.94 1003.94 1003.99 1003.76 1003.75 1003.94 1004.04 1004.25 1004.53 1004.75 1004.77 1004.68 1004.93 1005.64 1006.21 1006.61 1006.67 1007.21 1007.04 1006.77 1007.25 1007.66 1008.32 1009.01 1009.45 1009.83 1010.31 1010.62 1011.11 1011.04 1011.51 1011.62 1011.63 1011.57 1011.48 1011.68 1011.71 1011.92 1011.96 1012.01 1012.02 1012.04
1005.56 1005.32 1004.84 1004.43 1004.10 1003.98 1004.14 1003.94 1003.97 1003.94 1003.92 1003.89 1003.95 1004.12 1004.16 1004.42 1004.34 1004.51 1004.39 1004.72 1005.33 1005.88 1006.25 1006.67 1006.44 1006.49 1007.22 1006.83 1007.25 1008.18 1008.75 1008.80 1009.20 1009.53 1009.87 1010.25 1010.30 1010.53 1010.76 1010.86 1010.82 1010.75 1010.74 1011.07 1011.38 1011.44 1011.30 1011.40 1011.46
1005.73 1005.41 1005.11 1004.56 1004.09 1003.88 1004.18 1003.79 1003.74 1003.57 1003.59 1003.62 1003.63 1003.76 1003.87 1003.97 1004.13 1004.02 1004.22 1004.55 1005.16 1005.48 1006.43 1006.73 1007.20 1007.57 1007.39 1007.04 1007.70 1008.66 1008.44 1008.39 1008.77 1008.74 1008.98 1009.06 1009.14 1009.47 1010.02 1010.20 1010.16 1009.96 1010.26 1010.44 1010.88 1010.78 1010.93 1010.91 1010.99
1006.19 1006.18 1005.60 1004.76 1003.73 1003.58 1003.61 1003.42 1003.35 1003.04 1003.28 1003.26 1003.13 1003.46 1003.67 1003.70 1003.82 1003.76 1003.76 1004.20 1004.71 1005.32 1005.89 1006.61 1006.87 1007.08 1007.10 1007.43 1007.29 1008.26 1007.93 1007.90 1008.07 1008.19 1008.21 1008.18 1008.46 1008.87 1009.10 1009.26 1009.22 1009.22 1009.75 1009.90 1010.25 1010.56 1010.86 1011.28 1011.15
1006.75 1006.03 1005.31 1004.59 1003.22 1002.95 1002.87 1002.81 1002.99 1002.61 1002.74 1002.75 1002.96 1003.30 1003.60 1003.78 1003.70 1003.55 1003.43 1003.61 1004.40 1004.92 1005.53 1006.05 1006.51 1007.00 1007.02 1007.59 1007.49 1007.90 1007.92 1007.88 1007.80 1007.79 1007.52 1007.59 1007.91 1008.06 1008.83 1009.09 1009.15 1009.22 1009.50 1009.60 1009.84 1010.23 1010.58 1011.00 1011.30
1006.07 1005.67 1005.30 1004.33 1003.07 1003.21 1002.62 1002.59 1002.58 1002.34 1002.52 1002.89 1002.86 1003.17 1003.12 1003.30 1003.23 1003.07 1003.31 1003.30 1004.14 1004.65 1005.02 1005.44 1005.71 1005.96 1006.97 1007.81 1008.00 1008.14 1008.16 1007.95 1007.58 1007.37 1007.08 1007.07 1007.30 1007.95 1008.52 1008.75 1009.36 1009.65 1009.83 1009.52 1009.58 1010.13 1010.72 1010.94 1010.97
1005.37 1005.15 1004.76 1003.86 1003.17 1003.32 1003.49 1003.56 1002.87 1002.61 1002.30 1002.33 1002.75 1003.10 1002.95 1003.01 1002.95 1002.81 1003.10 1003.40 1003.94 1004.27 1004.52 1004.98 1005.39 1005.85 1006.51 1007.53 1007.87 1008.10 1008.05 1007.62 1007.31 1006.97 1006.84 1006.67 1007.49 1007.29 1007.30 1007.72 1008.50 1008.70 1008.94 1009.02 1009.38 1009.74 1009.93 1010.15 1010.63
1004.59 1004.74 1004.47 1004.13 1003.78 1003.71 1004.15 1003.68 1003.22 1002.38 1002.01 1002.10 1001.97 1002.00 1002.32 1002.58 1002.88 1002.73 1002.99 1003.01 1003.60 1004.52 1004.99 1005.32 1005.67 1005.92 1006.27 1006.62 1007.08 1007.66 1007.79 1007.56 1007.34 1006.81 1006.87 1006.49 1007.05 1007.47 1007.26 1007.91 1008.12 1008.53 1008.55 1008.22 1008.36 1008.74 1008.96 1009.62 1009.91
1004.30 1004.33 1004.34 1004.65 1005.02 1005.20 1004.70 1004.27 1003.99 1003.12 1002.45 1001.97 1001.62 1001.65 1001.50 1001.72 1001.95 1002.41 1003.37 1004.04 1004.35 1004.97 1005.19 1005.69 1006.05 1006.20 1006.06 1006.54 1007.26 1007.63 1008.02 1007.92 1007.27 1007.09 1006.82 1006.50 1006.37 1006.79 1006.16 1009.28 1008.60 1008.91 1008.34 1007.95 1007.43 1007.89 1008.56 1009.58 1010.14
1003.83 1004.16 1004.69 1005.13 1005.59 1005.86 1005.85 1005.50 1004.32 1003.32 1002.78 1001.82 1001.03 1000.43 1000.50 1000.83 1001.54 1002.67 1003.41 1003.77 1004.22 1004.68 1005.33 1005.67 1005.99 1006.35 1006.52 1006.75 1007.14 1007.62 1007.84 1007.63 1007.07 1006.70 1006.58 1006.21 1006.66 1006.81 1006.66 1006.70 1005.88 1007.34 1006.21 1007.72 1007.20 1007.22 1007.47 1008.20 1008.57
1003.81 1004.45 1005.17 1005.84 1006.55 1006.67 1006.51 1005.77 1004.91 1003.72 1002.52 1001.98 1001.15 999.64 999.73 1001.12 1002.15 1002.88 1003.42 1003.91 1004.61 1004.84 1005.30 1005.64 1006.03 1006.40 1006.51 1006.80 1007.21 1007.52 1007.67 1007.56 1007.23 1006.56 1006.59 1006.17 1005.82 1006.20 1006.42 1006.13 1006.01 1006.35 1006.54 1006.09 1006.57 1007.37 1008.10 1008.24 1008.34
1004.39 1005.46 1006.95 1007.70 1007.98 1007.43 1006.78 1005.85 1004.69 1003.40 1002.31 1001.76 1001.54 1001.17 1001.12 1001.85 1002.65 1003.44 1004.03 1004.65 1004.79 1005.22 1005.49 1005.68 1005.99 1006.53 1006.81 1007.09 1007.33 1007.56 1007.61 1007.48 1007.26 1006.84 1006.52 1006.16 1005.53 1005.23 1005.33 1005.53 1005.55 1005.80 1005.65 1005.92 1006.57 1005.52 1006.88 1007.22 1008.47
1005.80 1006.54 1007.94 1008.57 1009.18 1008.77 1007.72 1006.17 1004.29 1003.39 1002.81 1002.04 1001.59 1001.57 1002.39 1003.13 1003.58 1004.05 1004.48 1004.70 1005.05 1005.39 1005.68 1005.88 1006.23 1006.49 1006.65 1006.89 1007.23 1007.26 1007.32 1007.45 1007.27 1006.89 1006.49 1005.94 1005.54 1005.24 1005.03 1005.03 1005.07 1004.92 1005.05 1005.25 1005.24 1005.18 1005.42 1005.28 1006.73
1006.80 1007.67 1008.63 1009.38 1010.05 1009.87 1008.55 1006.40 1004.59 1004.15 1003.62 1003.04 1002.89 1002.93 1004.04 1003.82 1004.40 1004.66 1004.85 1005.01 1005.28 1005.58 1005.78 1005.81 1005.94 1006.10 1006.34 1006.56 1006.73 1006.96 1007.11 1007.24 1007.26 1006.92 1006.66 1005.92 1005.06 1004.61 1004.30 1004.42 1004.39 1004.28 1004.35 1004.42 1004.30 1004.41 1004.47 1005.05 1006.51
1007.44 1008.24 1009.51 1010.95 1011.78 1010.79 1008.64 1007.02 1005.63 1005.01 1004.87 1004.58 1004.28 1004.86 1004.87 1004.90 1005.11 1005.16 1005.35 1005.38 1005.53 1005.87 1005.88 1005.95 1005.99 1005.98 1006.06 1006.21 1006.39 1006.59 1006.69 1006.73 1006.72 1006.60 1006.56 1006.20 1005.70 1004.86 1004.33 1004.09 1003.72 1003.41 1003.59 1003.54 1003.94 1004.28 1004.38 1005.10 1006.17
1008.35 1008.90 1009.72 1010.90 1011.70 1011.28 1009.60 1007.52 1005.95 1005.70 1005.76 1005.79 1005.68 1005.26 1005.31 1005.62 1005.55 1005.52 1005.54 1005.52 1005.68 1005.62 1005.65 1005.81 1005.75 1005.80 1005.93 1006.00 1006.14 1006.22 1006.37 1006.23 1006.02 1006.28 1006.24 1005.97 1005.67 1005.37 1004.99 1004.30 1003.63 1003.21 1003.30 1003.58 1003.78 1004.21 1004.62 1004.69 1005.35
1008.91 1009.63 1010.59 1011.85 1011.97 1011.27 1010.07 1007.58 1006.35 1006.07 1006.01 1006.22 1006.13 1005.93 1005.60 1005.58 1005.51 1005.62 1005.53 1005.47 1005.49 1005.58 1005.59 1005.48 1005.42 1005.54 1005.67 1005.78 1005.83 1005.85 1006.01 1006.07 1006.07 1006.11 1005.86 1005.53 1005.28 1005.11 1005.14 1004.99 1004.31 1003.95 1003.45 1003.29 1003.76 1004.04 1003.96 1004.15 1004.49
Wind_Speed
9 8 7 4 2 2 7 9 10 9 1 8 7 6 9 6 5 7 9 19 22 14 10 14 20 20 19 18 16 16 15 15 15 15 14 14 14 14 14 13 12 11 12 11 10 9 9 9 9
5 7 2 3 2 3 7 4 5 7 6 9 8 5 15 11 10 16 10 19 19 16 9 11 18 20 19 17 16 15 16 16 15 15 14 14 13 13 12 11 11 11 11 11 9 9 9 8 7
8 6 1 3 4 8 4 4 5 8 8 4 6 3 6 9 12 5 19 21 20 14 9 10 16 19 20 18 17 16 15 15 15 15 14 13 13 12 11 10 10 11 12 11 10 8 8 7 6
4 5 4 1 9 13 14 12 2 6 10 5 5 10 5 7 4 12 21 20 17 13 11 12 14 15 17 18 16 16 16 16 16 16 14 13 13 12 11 10 8 8 8 9 9 8 7 6 5
1 2 2 4 9 13 13 11 13 3 6 5 6 5 6 11 14 23 22 20 19 14 12 10 13 14 15 16 16 15 16 16 16 16 16 15 14 13 12 11 10 10 10 9 8 6 6 5 4
3 3 2 5 8 15 7 7 5 2 3 8 2 7 3 10 13 10 18 19 19 18 15 12 14 14 14 14 15 14 14 16 17 16 15 15 15 14 13 12 11 10 10 10 9 8 7 6 5
5 1 6 8 10 15 13 8 6 2 4 5 5 7 4 8 5 9 10 19 18 16 14 11 10 12 14 15 15 15 14 14 15 16 16 15 14 13 13 13 12 12 11 10 10 9 8 8 7
2 3 4 8 11 16 15 5 5 5 3 5 4 4 2 2 6 5 13 18 16 14 13 11 8 8 8 7 12 13 13 14 14 14 15 15 16 15 13 12 11 12 12 12 11 11 10 10 9
5 2 5 9 11 15 10 10 8 3 6 7 3 5 6 4 1 3 4 15 16 14 15 14 10 7 6 6 8 11 14 15 15 14 15 12 6 8 11 12 14 14 12 11 11 11 11 10 10
7 5 9 10 13 8 9 7 7 5 5 2 5 5 2 5 4 7 6 7 17 17 16 16 14 11 9 9 7 5 7 6 6 8 10 7 8 8 10 10 14 13 13 13 12 11 11 10 4
7 10 8 14 16 8 5 5 4 3 3 2 3 1 7 5 7 8 7 6 14 22 16 17 17 13 11 7 7 5 4 4 5 8 8 6 6 6 7 5 7 5 11 5 7 6 5 7 5
7 11 10 19 15 6 5 5 6 1 3 4 5 6 1 4 7 5 9 7 7 10 15 11 17 17 13 6 8 9 7 7 6 8 12 9 6 6 7 5 6 7 6 7 7 5 7 7 7
9 10 13 16 13 8 6 5 5 6 7 7 8 5 6 4 6 9 5 5 9 11 10 12 15 13 16 13 11 10 9 9 9 8 9 8 8 7 6 8 8 8 7 7 7 8 8 9 9
11 14 13 11 14 4 5 5 4 7 8 7 8 9 9 8 8 8 7 4 7 13 13 10 13 10 7 8 12 9 9 9 9 9 10 10 7 6 7 8 9 9 9 9 9 9 9 9 9
9 8 9 9 5 9 6 8 10 9 9 11 11 9 10 10 10 10 9 8 6 10 14 13 10 6 8 8 6 6 7 6 9 10 12 13 10 10 7 7 9 8 9 11 9 9 8 6 6
7 6 5 6 7 9 8 10 11 12 13 13 11 10 9 10 11 8 10 7 7 12 17 11 7 9 7 2 1 3 5 6 7 8 10 15 15 13 12 8 8 7 6 7 8 9 7 8 8
5 5 7 9 14 14 16 11 13 15 8 12 16 9 7 7 7 8 6 6 7 10 10 8 7 7 9 5 7 6 6 5 6 7 8 13 16 14 13 10 10 8 7 5 4 4 4 3 3
8 6 9 13 18 14 19 18 10 8 6 4 8 7 6 7 11 9 9 8 9 10 10 10 8 8 4 3 4 4 3 4 4 5 7 13 14 16 10 9 9 7 9 8 5 6 3 2 3
12 12 12 10 8 4 5 7 9 9 5 7 8 9 10 10 10 7 8 9 9 8 9 8 7 2 5 2 3 3 5 5 7 6 9 10 12 14 15 11 8 9 5 10 9 4 5 5 4
15 15 14 7 9 7 8 8 8 8 6 6 9 10 10 9 9 9 9 8 10 10 10 8 7 5 4 4 3 2 3 5 6 8 10 12 8 13 15 15 12 10 10 11 5 7 5 7 5
8 6 7 5 10 10 8 9 8 5 4 8 10 9 8 12 11 9 9 9 6 6 8 7 6 7 4 4 1 0 2 3 2 4 6 8 5 1 9 8 12 13 11 9 9 10 13 10 5
6 10 12 10 6 9 3 13 7 8 10 14 16 13 11 10 9 7 9 9 10 8 8 9 8 3 4 4 3 2 1 4 5 5 5 5 6 6 11 22 19 12 7 8 13 9 6 3 7
6 7 9 8 7 2 7 4 6 6 12 14 11 21 17 14 8 14 11 9 9 9 8 8 9 9 8 5 4 1 3 3 4 7 9 8 4 13 18 25 25 15 12 18 10 8 11 8 8
5 5 8 6 2 8 6 8 8 13 13 8 5 5 12 16 14 11 9 9 8 8 8 8 9 6 6 6 5 3 5 6 6 9 8 8 8 4 11 21 12 14 14 18 4 6 7 10 10
5 4 4 5 4 8 9 11 9 5 7 3 7 10 11 12 11 9 10 8 7 7 6 7 8 5 6 7 7 6 6 5 6 7 8 10 9 8 5 4 7 11 4 4 4 4 5 4 4
7 0 4 5 4 5 10 5 6 6 9 8 8 10 10 10 9 9 8 6 6 7 6 6 6 3 4 4 4 5 6 4 5 6 6 8 6 8 8 7 5 4 8 10 8 5 9 11 8
6 5 2 3 5 3 5 10 11 6 9 10 15 14 10 10 9 8 7 7 5 3 5 6 5 4 5 3 1 3 3 5 5 7 8 8 9 9 11 8 7 6 8 8 10 10 12 13 4
3 6 5 3 1 6 6 7 2 8 8 12 13 11 11 8 8 7 6 6 5 6 4 4 5 5 6 6 5 5 4 3 5 4 6 9 11 9 9 10 9 6 6 7 8 7 8 8 6
5 4 3 5 6 5 2 5 5 2 9 11 12 13 7 5 5 4 4 3 2 2 3 3 3 4 4 5 4 5 6 6 4 4 5 6 7 9 14 14 11 7 7 6 7 7 7 9 8
10 6 4 3 3 5 3 11 10 6 7 6 8 10 7 8 6 6 5 2 2 4 5 5 3 2 3 2 2 2 4 6 5 6 6 6 7 6 5 7 10 11 5 7 8 10 12 13 13
Wind_Direction
304 310 305 321 55 141 248 254 265 341 25 11 13 50 79 64 84 147 108 118 123 130 148 145 140 138 139 139 141 140 137 133 130 127 124 121 119 119 119 117 118 116 116 114 113 108 101 100 97
307 315 298 255 153 274 267 249 19 345 274 26 334 17 79 78 88 115 103 127 124 130 150 148 144 142 142 142 143 143 142 139 135 133 130 125 123 121 120 120 121 121 120 119 118 117 114 112 106
284 205 15 187 207 238 266 306 243 159 274 333 325 41 69 110 112 102 127 126 121 130 136 151 149 146 145 146 146 146 145 142 139 137 135 133 132 129 126 125 127 132 132 130 129 125 119 114 115
310 346 312 113 261 263 249 280 121 24 300 23 357 79 49 101 101 125 129 123 122 136 131 145 145 146 147 149 151 151 150 147 145 144 142 137 132 129 130 128 131 131 131 133 135 136 134 136 141
274 297 280 266 255 264 265 266 138 225 319 52 22 85 83 100 116 128 134 136 136 129 135 142 145 147 151 152 153 156 154 152 151 150 147 144 141 140 140 141 146 143 141 140 142 142 147 155 170
323 148 316 256 276 268 301 327 130 112 358 350 76 93 113 127 117 138 143 143 142 141 147 151 150 147 149 153 155 157 162 158 155 153 152 149 148 149 152 154 156 155 155 156 158 165 171 179 196
212 291 236 261 268 287 281 314 315 127 264 38 338 79 333 38 131 139 141 134 136 137 139 146 151 153 157 158 160 159 161 160 158 155 154 153 155 157 162 164 165 165 165 169 172 178 188 200 210
188 191 265 271 271 270 289 279 236 240 191 101 15 87 122 336 17 111 120 133 136 135 137 141 142 144 141 150 159 160 161 160 159 159 158 158 160 164 171 174 177 175 177 179 185 189 197 209 220
226 240 242 250 258 274 290 308 295 137 140 88 53 84 153 136 279 319 166 146 142 145 149 151 147 144 140 141 165 166 169 165 164 166 164 160 165 173 181 182 183 184 185 191 197 200 206 219 229
183 215 231 249 260 262 280 11 323 40 26 135 119 310 174 168 203 238 231 186 155 155 164 155 151 151 160 168 162 161 178 170 171 170 170 175 175 180 183 195 193 193 195 194 204 212 219 219 211
249 230 243 248 252 299 258 336 344 45 17 28 348 335 326 38 312 233 257 237 176 173 158 160 156 156 172 168 156 168 174 173 182 181 177 189 198 197 197 190 191 187 202 198 206 219 223 232 217
241 238 233 262 272 280 297 311 303 346 221 301 295 289 258 334 325 332 348 50 48 102 145 145 157 159 181 155 163 178 180 183 186 201 184 188 199 194 196 183 187 186 197 205 199 204 216 232 236
237 236 234 248 261 252 243 251 267 286 262 233 256 277 296 282 289 295 281 89 98 103 120 134 152 185 174 167 176 176 185 184 183 194 200 191 201 203 185 183 187 201 192 202 211 206 210 215 230
240 233 234 242 263 274 252 238 236 277 271 271 229 228 246 227 240 263 282 271 134 139 153 157 173 174 165 193 167 176 186 186 182 194 199 193 194 217 215 192 196 197 200 204 207 209 209 215 214
269 279 277 236 242 268 261 265 243 236 244 243 236 213 222 218 233 237 240 247 182 153 159 170 176 191 210 215 166 160 197 171 190 195 192 194 188 204 210 209 202 200 201 204 212 217 212 200 202
308 309 267 271 242 248 187 245 240 229 227 236 223 214 217 230 224 233 229 215 162 133 163 167 173 221 242 105 123 218 185 177 202 193 193 196 202 199 210 210 217 212 201 196 209 212 215 208 205
305 231 275 267 240 242 217 235 228 238 240 234 220 198 217 232 264 245 194 149 130 111 144 152 166 212 239 254 199 212 204 187 198 199 199 202 203 205 205 211 213 207 219 206 193 218 188 201 216
246 251 242 246 259 231 238 223 229 232 245 163 161 199 217 236 246 228 216 201 124 130 121 137 154 131 64 231 211 227 242 235 222 218 207 200 205 208 209 216 213 201 219 229 218 206 181 181 210
265 272 277 274 279 19 262 193 219 227 239 234 212 204 210 224 230 223 225 205 139 136 125 137 129 104 106 44 224 229 230 248 239 237 230 203 198 205 216 222 225 222 207 223 225 216 203 231 185
245 260 272 290 326 347 313 271 245 230 234 234 213 229 223 221 230 217 198 193 162 163 159 146 133 136 153 143 200 218 247 246 221 236 236 234 203 207 211 212 217 206 216 223 199 202 190 213 179
286 283 292 285 314 312 324 305 312 278 271 268 257 236 209 204 211 219 214 204 143 112 117 126 160 178 154 205 136 355 278 282 303 261 251 242 228 5 301 272 234 234 226 215 209 207 208 215 221
248 280 295 283 258 276 302 285 299 283 257 256 249 235 232 209 194 183 99 84 94 104 83 72 59 92 153 118 94 63 244 294 294 277 278 269 231 167 139 259 260 265 265 228 225 200 194 163 208
246 258 260 267 276 308 303 317 276 267 280 273 246 230 220 210 163 111 114 112 104 93 107 88 72 62 58 68 87 68 310 274 280 305 315 315 205 201 219 223 221 236 220 247 227 215 211 197 220
16 1 347 342 331 268 238 248 270 258 259 310 344 313 213 118 111 110 113 102 92 84 91 88 85 62 54 57 27 347 280 282 299 304 307 302 303 239 220 225 222 229 242 235 247 42 7 289 246
341 15 320 321 301 248 238 265 227 268 325 324 29 59 80 95 95 91 89 91 93 89 94 95 83 64 61 43 21 349 298 275 282 290 300 301 300 299 292 231 243 235 211 146 138 152 190 215 301
330 37 182 254 257 298 331 260 242 347 11 10 47 110 96 73 86 94 94 85 96 96 108 103 110 97 97 69 14 353 322 294 285 274 279 287 285 296 303 307 236 222 200 189 199 212 235 239 234
340 356 355 11 23 296 228 282 276 17 1 18 42 56 59 83 81 77 68 84 73 61 139 143 166 203 160 155 357 347 348 337 311 311 304 285 287 293 299 306 290 226 212 217 206 224 231 240 173
334 316 12 43 319 268 240 251 217 43 3 6 8 64 47 45 47 34 26 21 45 49 30 352 295 218 194 191 207 215 249 278 295 312 329 326 310 300 301 307 299 273 208 212 215 225 236 196 137
288 269 206 179 179 218 246 251 125 113 41 20 23 15 3 53 37 1 347 9 97 43 344 294 328 238 205 201 224 231 254 254 280 293 291 299 324 334 321 303 287 276 219 193 186 186 209 181 169
282 306 45 187 254 240 234 254 311 95 57 33 348 330 323 333 338 322 297 271 307 272 257 241 231 167 233 212 189 216 259 264 290 292 286 296 298 308 337 1 9 2 266 190 194 207 208 194 192